Track OPTUS B1 (AUSSAT B1) now! OPTUS B1 (AUSSAT B1) is classified as:
1 22087U 92054A 25182.61770068 .00000009 00000-0 00000-0 0 9991 2 22087 12.4775 26.6613 0010564 113.0901 257.3524 0.99201863131238